Regional Weather Roundup
Issued by NWS

Home | Current Version | Previous Version | Text Only | Print | Product List | Glossary On
Versions: 1 2 3 4 5 6 7 8 9 10 11 12 13 14 15 16 17 18 19 20 21 22 23 24 25 26 27
000
ASUS45 KCYS 232010
RWRWY

WYOMING REGIONAL WEATHER ROUNDUP
NATIONAL WEATHER SERVICE CHEYENNE WY
200 PM MDT SAT SEP 23 2017

NOTE:  "FAIR" INDICATES FEW OR NO CLOUDS BELOW 12,000 FEET
WITH NO SIGNIFICANT WEATHER AND/OR OBSTRUCTIONS TO VISIBILITY.

WYZ001-232100-
YELLOWSTONE NATIONAL PARK

CITY           SKY/WX    TMP DP  RH WIND       PRES   REMARKS
LK YELLOWSTONE NOT AVBL
W YELLOWSTONE  NOT AVBL

$$
WYZ002>013-054>058-071-098>099-232100-
NORTHERN WYOMING

CITY           SKY/WX    TMP DP  RH WIND       PRES   REMARKS
JACKSON        CLOUDY    46  29  51 VRB3      29.98F
CODY           CLOUDY    40  36  86 NE10      30.07R WCI  33
GREYBULL       CLOUDY    46  41  82 NW10      30.04R
WORLAND        CLOUDY    44  40  85 N8        30.02F
SHERIDAN       CLOUDY    42  42 100 N8        30.08S FOG
BUFFALO        LGT RAIN  40  37  89 N7        30.06S FOG
GILLETTE       LGT RAIN  41  40  96 N9        30.02F FOG
HULETT         DRIZZLE   41  39  93 E6        30.06R
NEWCASTLE      HVY RAIN  43  43 100 W5        30.04S

$$
WYZ014>020-022>026-101>103-232100-
CENTRAL WYOMING

CITY           SKY/WX    TMP DP  RH WIND       PRES   REMARKS
BIG PINEY      FAIR      47  33  58 MISG      29.96F
PINEDALE       MOCLDY    45  32  61 CALM      29.97F
DUBOIS         CLOUDY    39  34  81 E7        29.99F WCI  34
LANDER           N/A    N/A N/A N/A MISG      29.98F
RIVERTON       LGT RAIN  40  40 100 N10       29.99F FOG     WCI  33
CASPER         CLOUDY    43  41  93 N14       29.96F
DOUGLAS        RAIN      45  43  93 SE7       30.01F FOG

$$
WYZ021-027>030-104>119-232100-
SOUTHERN WYOMING

CITY           SKY/WX    TMP DP  RH WIND       PRES   REMARKS
EVANSTON       CLOUDY    41  34  76 N9        29.96S
KEMMERER         N/A     45  34  65 E5        29.96F
FORT BRIDGER   CLOUDY    43  39  86 NE7       29.98S
ROCK SPRINGS   CLOUDY    42  39  89 E9        29.95S
DIXON          FAIR      58  33  39 SW17G23   29.92R
RAWLINS        PTSUNNY   52  39  61 NE7       29.91F
SARATOGA       CLOUDY    46  37  71 SE20G26   29.95F
LARAMIE        HVY RAIN  43  40  89 N8        30.02R FOG
CHEYENNE       CLOUDY    45  39  79 NE9       29.98F
TORRINGTON     CLOUDY    45  44  97 N7        29.99F FOG
PINE BLUFFS    CLOUDY    43  43 100 MISG      29.99F FOG

$$




USA.gov is the U.S. government's official web portal to all federal, state and local government web resources and services.